Regional Weather Roundup
Issued by NWS

Home | Current Version | Previous Version | Text Only | Print | Product List | Glossary Off
Versions: 1 2 3 4 5 6 7 8 9 10 11 12 13 14 15 16 17 18 19 20 21 22 23 24 25 26 27 28 29 30 31 32 33 34 35 36 37 38 39 40 41 42 43 44 45 46 47 48 49 50

097
ASUS44 KLIX 021305
RWRLA
LOUISIANA WEATHER ROUNDUP
NATIONAL WEATHER SERVICE NEW ORLEANS LA
800 AM CDT THU OCT 02 2014

NOTE: "FAIR" INDICATES FEW OR NO CLOUDS BELOW 12,000 FEET WITH NO
      SIGNIFICANT WEATHER AND/OR OBSTRUCTIONS TO VISIBILITY.
      SKY/WX - SKY CONDITION AND SIGNIFICANT WEATHER.
      TMP - AIR TEMPERATURE.    DP   - DEWPOINT TEMPERATURE.
      RH  - RELATIVE HUMIDITY.  PRES - PRESSURE.
      HX  - HEAT INDEX.         WCI  - WIND CHILL INDEX.

*  THESE STATIONS ARE NOT NWS OR FAA STATIONS AND ARE NOT UNDER
   NWS QUALITY CONTROL.

LAZ040-048-061>063-065-066-069-021400-
SOUTHEAST LOUISIANA

CITY           SKY/WX    TMP DP  RH WIND       PRES   REMARKS
N.O. AUDUBON     N/A     79  78  97 MISG        N/A
N.O. INTL ARPT MOSUNNY   79  76  90 SE7       29.97R
N.O. LAKEFRONT SUNNY     78  76  93 SE8       29.98R
N.O. DOWNTOWN* FAIR      79  73  83 SE8       29.98S
SLIDELL        MOSUNNY   77  75  93 CALM      29.98R
BATON ROUGE    PTSUNNY   77  75  93 SE7       29.97R FOG
BOOTHVILLE     SUNNY     79  78  97 SE6       29.99R
BELLE CHASSE   MOSUNNY   79  75  87 SE5       29.98R
BOGALUSA*      CLOUDY    79  75  87 S5        30.00S
GALLIANO*      NOT AVBL
NEW ROADS*     CLOUDY    76  76  98 SE5       29.97R FOG
GONZALES*      FAIR      76  76 100 CALM      29.97R
HAMMOND*       MOSUNNY   79  75  89 SE3       30.00R
HOUMA*         SUNNY    N/A N/A N/A CALM      29.97R
PORT FOURCHON* SUNNY     82  77  83 SE7       30.01R

$$

LAZ041-044-053-054-021400-
SOUTHWEST LOUISIANA

CITY           SKY/WX    TMP DP  RH WIND       PRES   REMARKS
LAKE CHARLES   MOSUNNY   80  78  94 SE5       29.92R FOG
LAFAYETTE      CLOUDY    79  78  97 VRB3      29.95R FOG
PATTERSON      PTSUNNY   79  77  94 SE6       29.98S
SALT POINT       N/A     82  80  94 SE5       29.95R
NEW IBERIA     MOSUNNY   79  77  94 SE5       29.95S
CHENAULT AIRPK MOSUNNY   79  77  94 SE6       29.93R

$$

LAZ027-028-021400-
CENTRAL LOUISIANA

CITY           SKY/WX    TMP DP  RH WIND       PRES   REMARKS
FORT POLK      CLOUDY    78  76  95 S9        29.92R
ALEXANDRIA INT PTSUNNY   78  76  93 SE7       29.92R
ALEXANDRIA     CLOUDY    78  76  93 SE3       29.94R

$$

LAZ001-002-021400-
NORTHWEST LOUISIANA

CITY           SKY/WX    TMP DP  RH WIND       PRES   REMARKS
SHREVEPORT     PTCLDY    76  74  93 SE3       29.89R FOG
BARKSDALE AFB  PTCLDY    76  76  99 S8        29.90R
DTN SHREVEPORT MOCLDY    76  73  91 S7        29.90R

$$

LAZ014-016-021400-
NORTHEAST LOUISIANA

CITY           SKY/WX    TMP DP  RH WIND       PRES   REMARKS
MONROE         PTSUNNY   77  73  88 S5        29.94R
TALLULAH       CLOUDY    78  74  87 S8        29.96R

$$




USA.gov is the U.S. government's official web portal to all federal, state and local government web resources and services.